User: anonymous
Location: Unspecified
(0.0000°N, 0.0000°E)
Time: 19:11:28
(UTC+02:00)
Language:

CZ-4 R/B - Orbit

View from above orbital plane
View from above orbital plane
View from above satellite
View from above satellite

Ground track
Ground track

The orbit data is extracted from the following two-line orbital elements,

1 28059U 03049C   14211.15464285  .00000043  00000-0  22774-4 0  1157
2 28059 098.6938 051.3490 0050137 211.0995 258.8384 14.52134497570824
Epoch (UTC): 30 July 2014 03:42:41
Eccentricity: 0.0050137
inclination: 98.6938°
perigee height: 683 km
apogee height: 754 km
right ascension of ascending node: 51.3490°
argument of perigee: 211.0995°
revolutions per day: 14.52134497
mean anomaly at epoch: 258.8384°
orbit number at epoch: 57082

The dashed part of the orbit path shows where the satellite is in the earth's shadow,  

DLR